F4IED-13 Weather Reports


time (UTC)temp
F
wind
direction
speed
knots
gust
knots
rain 1hr
in
rain 24hr
in
rain mn
in
humidity
%
barometer
mb
20260505023002 56 27 1.7 2.6 0.00 0.06 0.00 91 1009.1
20260505022002 56 27 0.9 2.6 0.00 0.06 0.00 91 1009.1
20260505020959 56 14 1.7 4.3 0.00 0.06 0.00 91 1008.8
20260505015957 56 19 3.5 5.2 0.00 0.06 0.00 91 1008.8
20260505014954 56 21 3.5 5.2 0.00 0.06 0.00 91 1009.0
20260505013951 56 19 1.7 3.5 0.00 0.06 0.00 91 1009.2
20260505012951 56 17 2.6 4.3 0.00 0.06 0.00 91 1009.4
20260505011948 56 17 1.7 5.2 0.00 0.06 0.00 91 1009.5
20260505010946 56 18 1.7 3.5 0.00 0.06 0.00 91 1009.6
20260505005944 56 20 1.7 3.5 0.00 0.06 0.00 91 1009.5
20260505004944 56 27 0.9 3.5 0.00 0.06 0.00 91 1009.5
20260505003940 56 4 1.7 4.3 0.00 0.06 0.00 91 1009.5
20260505002937 56 9 1.7 4.3 0.00 0.06 0.00 91 1009.6
20260505001936 56 7 1.7 4.3 0.00 0.06 0.00 91 1009.6
20260505000934 56 18 1.7 5.2 0.00 0.06 0.00 91 1009.7
20260504235932 56 14 1.7 5.2 0.00 0.06 0.00 91 1009.7
20260504234930 56 355 2.6 5.2 0.00 0.06 0.00 91 1009.6
20260504233927 56 358 2.6 5.2 0.00 0.06 0.00 90 1009.5
20260504232925 56 7 1.7 5.2 0.00 0.06 0.00 90 1009.5
20260504231923 56 10 1.7 4.3 0.00 0.06 0.00 90 1009.7
20260504230920 56 16 2.6 5.2 0.00 0.06 0.00 90 1009.9
20260504225917 56 19 2.6 4.3 0.00 0.06 0.00 90 1010.1
20260504224936 56 4 1.7 3.5 0.00 0.06 0.00 90 1010.3
20260504223913 56 356 1.7 5.2 0.00 0.06 0.00 90 1010.4
20260504222911 56 353 2.6 6.1 0.00 0.06 0.00 90 1010.5
20260504221909 56 5 1.7 3.5 0.00 0.06 0.00 90 1010.5
20260504220907 56 353 1.7 4.3 0.00 0.06 0.00 90 1010.6
20260504215905 56 4 1.7 3.5 0.00 0.06 0.06 89 1010.7
20260504214903 56 354 1.7 5.2 0.00 0.06 0.06 89 1010.8
20260504213900 56 357 1.7 3.5 0.00 0.06 0.06 89 1010.9
20260504212858 56 354 1.7 3.5 0.00 0.06 0.06 89 1010.9
20260504211856 56 4 1.7 2.6 0.00 0.06 0.06 89 1010.9
20260504210855 57 3 0.9 1.7 0.00 0.06 0.06 89 1010.9
20260504205852 57 18 1.7 3.5 0.00 0.06 0.06 89 1010.9
20260504204850 57 358 1.7 3.5 0.00 0.06 0.06 89 1010.9
20260504203848 57 7 1.7 3.5 0.00 0.06 0.06 88 1010.9
20260504202905 57 14 1.7 3.5 0.00 0.06 0.06 88 1010.8
20260504201843 57 14 1.7 3.5 0.00 0.06 0.06 88 1010.8
20260504200841 57 20 0.9 1.7 0.00 0.06 0.06 88 1010.9
20260504195838 57 12 1.7 3.5 0.00 0.06 0.06 88 1010.9
20260504194836 57 17 1.7 3.5 0.00 0.06 0.06 88 1011.0
20260504193835 57 355 1.7 2.6 0.00 0.06 0.06 87 1011.0
20260504192832 57 18 0.9 1.7 0.00 0.06 0.06 87 1011.0
20260504191830 58 22 0.9 1.7 0.00 0.06 0.06 87 1010.9
20260504190848 58 21 0.9 1.7 0.00 0.06 0.06 87 1010.8
20260504185826 58 357 1.7 3.5 0.00 0.06 0.06 87 1010.8
20260504184824 58 356 0.9 2.6 0.00 0.06 0.06 86 1010.8
20260504183823 58 351 0.9 1.7 0.00 0.07 0.06 86 1010.9
20260504182820 58 352 0.9 1.7 0.00 0.08 0.06 86 1010.8
20260504181818 58 351 0.9 2.6 0.00 0.08 0.06 86 1010.7
20260504180816 58 349 1.7 3.5 0.00 0.08 0.06 85 1010.6
20260504175814 59 355 0.9 1.7 0.00 0.08 0.06 85 1010.6
20260504174812 59 4 0.9 2.6 0.00 0.08 0.06 85 1010.6
20260504173810 59 357 0.9 1.7 0.00 0.08 0.06 85 1010.5
20260504172808 59 10 0.9 1.7 0.00 0.08 0.06 85 1010.5
20260504171806 59 4 0.9 2.6 0.01 0.08 0.06 85 1010.5
20260504170803 59 356 0.9 1.7 0.01 0.08 0.06 85 1010.5
20260504150740 60 24 1.7 3.5 0.01 0.05 0.03 85 1011.0
20260504140728 61 15 1.7 5.2 0.00 0.05 0.02 86 1011.2
20260504130717 60 45 0.9 3.5 0.01 0.05 0.02 86 1011.4
20260504110650 61 7 1.7 6.1 0.00 0.03 0.01 84 1012.0
20260504081614 58 195 0.9 1.7 0.01 0.03 0.01 90 1012.1
20260504080611 57 149 0.9 1.7 0.00 0.03 0.00 90 1012.1
20260504050534 55 5 0.9 1.7 0.00 0.03 0.00 90 1010.9
20260504045532 55 90 0.9 0.9 0.00 0.03 0.00 90 1010.9
20260504044531 55 174 0.9 0.9 0.00 0.03 0.00 89 1010.9
20260504043528 55 197 0.9 1.7 0.00 0.03 0.00 90 1011.0
20260504042526 55 21 0.9 0.9 0.00 0.03 0.00 90 1010.9
20260504041544 55 35 0.9 0.9 0.00 0.03 0.00 90 1011.0
20260504040522 55 142 0.9 0.9 0.00 0.03 0.00 90 1011.1
20260504035520 55 90 0.9 0.9 0.00 0.03 0.00 90 1011.1
20260504034518 55 135 0.9 1.7 0.00 0.03 0.00 90 1011.2
20260504033516 55 200 0.9 0.9 0.00 0.03 0.00 89 1011.3
20260504032535 55 0.0 0.9 0.00 0.03 0.00 89 1011.2
20260504031532 55 90 0.9 1.7 0.00 0.03 0.00 89 1011.3
20260504030510 55 123 0.9 0.9 0.00 0.03 0.00 89 1011.4
20260504025507 55 124 0.9 0.9 0.00 0.03 0.00 89 1011.4
20260504024507 55 126 0.9 0.9 0.00 0.03 0.00 89 1011.3
20260504023503 55 45 0.9 0.9 0.00 0.03 0.00 89 1011.3